Torna al catalogo

CORVUS BC2

AttivoScienzaSSO
NORAD 42846·PAYLOAD·🇺🇸 United States

Lanciato Jul 14, 2017 da Baikonur Cosmodrome

Loading…

Prossimi Passaggi (prossime 24 ore)

TLE

AggiornatoSource: Space-Track

Epoca: Sep 14, 2026, 06:19 UTC

1 42846U 17042X   26257.26322477  .00003310  00000-0  22617-3 0  9991
2 42846  97.4174  55.2390 0013250 161.5997 198.5713 15.06757962500479

Traccia CORVUS BC2 in tempo reale con AllMySat

Download on the App Store